TimeCDT,TemperatureF,Dew PointF,Humidity,Sea Level PressureIn,VisibilityMPH,Wind Direction,Wind SpeedMPH,Gust SpeedMPH,PrecipitationIn,Events,Conditions,WindDirDegrees,DateUTC
12:12 AM,31.5,26.8,83,29.85,3.0,NNE,10.4,17.3,N/A,Snow,Light Snow,20,2013-03-11 05:12:00
12:32 AM,31.1,27.0,85,29.84,3.0,North,10.4,17.3,N/A,Snow,Light Snow,10,2013-03-11 05:32:00
12:52 AM,30.9,27.1,86,29.84,4.0,North,8.1,-,N/A,Snow,Light Snow,10,2013-03-11 05:52:00
1:12 AM,30.9,26.4,83,29.84,7.0,North,10.4,-,N/A,,Overcast,10,2013-03-11 06:12:00
1:32 AM,31.1,25.7,80,29.83,10.0,North,10.4,-,N/A,,Overcast,10,2013-03-11 06:32:00
1:52 AM,31.1,25.3,79,29.83,10.0,North,8.1,-,N/A,,Overcast,10,2013-03-11 06:52:00
2:12 AM,31.1,24.8,77,29.83,10.0,North,12.7,16.1,N/A,,Overcast,360,2013-03-11 07:12:00
2:32 AM,31.1,24.8,77,29.82,10.0,North,9.2,-,N/A,,Overcast,10,2013-03-11 07:32:00
2:52 AM,30.9,24.6,77,29.82,10.0,North,10.4,-,N/A,,Overcast,360,2013-03-11 07:52:00
3:12 AM,30.9,24.8,78,29.81,10.0,North,10.4,16.1,N/A,,Overcast,360,2013-03-11 08:12:00
3:32 AM,30.9,24.8,78,29.81,10.0,North,10.4,-,N/A,,Overcast,350,2013-03-11 08:32:00
3:52 AM,30.2,24.3,79,29.80,10.0,NNW,12.7,-,N/A,,Overcast,340,2013-03-11 08:52:00
4:12 AM,29.8,23.9,79,29.80,10.0,North,11.5,16.1,N/A,,Overcast,360,2013-03-11 09:12:00
4:32 AM,29.7,23.9,79,29.79,10.0,North,12.7,18.4,N/A,,Overcast,350,2013-03-11 09:32:00
4:52 AM,29.7,23.9,79,29.78,10.0,North,10.4,-,N/A,,Overcast,360,2013-03-11 09:52:00
5:12 AM,29.3,23.9,80,29.78,10.0,North,10.4,19.6,N/A,,Overcast,10,2013-03-11 10:12:00
5:32 AM,29.3,23.5,79,29.78,10.0,North,12.7,-,N/A,,Overcast,350,2013-03-11 10:32:00
5:52 AM,28.9,23.0,78,29.78,10.0,North,13.8,-,N/A,,Overcast,360,2013-03-11 10:52:00
6:12 AM,28.8,23.0,79,29.77,10.0,North,11.5,18.4,N/A,,Overcast,10,2013-03-11 11:12:00
6:32 AM,28.4,23.0,80,29.77,10.0,North,8.1,18.4,N/A,,Overcast,360,2013-03-11 11:32:00
6:52 AM,28.8,23.4,80,29.77,10.0,North,10.4,16.1,N/A,,Overcast,350,2013-03-11 11:52:00
7:12 AM,28.8,23.4,80,29.77,10.0,North,10.4,-,N/A,,Overcast,350,2013-03-11 12:12:00
7:32 AM,28.4,23.0,80,29.77,10.0,North,10.4,-,N/A,,Overcast,350,2013-03-11 12:32:00
7:52 AM,28.4,23.4,81,29.78,10.0,North,8.1,-,N/A,,Overcast,350,2013-03-11 12:52:00
8:12 AM,28.2,23.0,81,29.78,10.0,North,8.1,-,N/A,,Overcast,350,2013-03-11 13:12:00
8:32 AM,28.2,23.0,81,29.78,10.0,North,9.2,-,N/A,,Overcast,350,2013-03-11 13:32:00
8:52 AM,28.0,23.0,81,29.78,10.0,NNW,10.4,17.3,N/A,,Overcast,340,2013-03-11 13:52:00
9:12 AM,28.2,23.0,81,29.78,10.0,NNW,9.2,-,N/A,,Overcast,330,2013-03-11 14:12:00
9:32 AM,28.2,23.0,81,29.78,10.0,North,10.4,16.1,N/A,,Overcast,350,2013-03-11 14:32:00
9:52 AM,28.2,22.8,80,29.78,10.0,NNW,11.5,-,N/A,,Overcast,340,2013-03-11 14:52:00
10:12 AM,28.2,22.8,80,29.78,10.0,NNW,13.8,-,N/A,,Overcast,330,2013-03-11 15:12:00
10:32 AM,28.2,23.0,81,29.78,10.0,North,11.5,16.1,N/A,,Overcast,360,2013-03-11 15:32:00
10:52 AM,28.2,23.0,81,29.78,10.0,NNW,10.4,-,N/A,,Overcast,340,2013-03-11 15:52:00
11:12 AM,28.4,23.4,81,29.78,10.0,NNW,13.8,17.3,N/A,,Overcast,340,2013-03-11 16:12:00
11:32 AM,28.4,23.4,81,29.77,10.0,NNW,11.5,16.1,N/A,,Overcast,340,2013-03-11 16:32:00
11:52 AM,28.4,23.5,82,29.77,10.0,NNW,11.5,-,N/A,,Overcast,340,2013-03-11 16:52:00
12:12 PM,28.8,23.7,81,29.76,10.0,NNW,11.5,-,N/A,,Overcast,330,2013-03-11 17:12:00
12:32 PM,28.9,23.7,81,29.76,10.0,NNW,11.5,18.4,N/A,,Overcast,340,2013-03-11 17:32:00
12:52 PM,29.3,23.9,80,29.76,10.0,North,11.5,16.1,N/A,,Overcast,350,2013-03-11 17:52:00
1:12 PM,29.7,23.9,79,29.75,10.0,North,10.4,16.1,N/A,,Overcast,360,2013-03-11 18:12:00
1:32 PM,29.7,23.9,79,29.75,10.0,NNW,10.4,-,N/A,,Overcast,340,2013-03-11 18:32:00
1:52 PM,29.7,23.9,79,29.74,10.0,North,11.5,-,N/A,,Overcast,350,2013-03-11 18:52:00
2:12 PM,29.7,23.9,79,29.74,10.0,North,10.4,16.1,N/A,,Overcast,350,2013-03-11 19:12:00
2:32 PM,29.8,23.9,79,29.73,10.0,NNW,8.1,-,N/A,,Overcast,340,2013-03-11 19:32:00
2:52 PM,29.8,23.5,77,29.73,10.0,NNW,11.5,16.1,N/A,,Overcast,340,2013-03-11 19:52:00
3:12 PM,30.2,23.5,76,29.73,10.0,North,10.4,-,N/A,,Overcast,350,2013-03-11 20:12:00
3:32 PM,30.6,23.9,76,29.74,10.0,North,10.4,-,N/A,,Overcast,350,2013-03-11 20:32:00
3:52 PM,31.1,22.6,71,29.74,10.0,NNW,11.5,-,N/A,,Overcast,340,2013-03-11 20:52:00
4:12 PM,31.1,22.3,70,29.74,10.0,North,10.4,-,N/A,,Overcast,350,2013-03-11 21:12:00
4:32 PM,30.9,22.5,71,29.75,10.0,NNW,9.2,-,N/A,,Overcast,340,2013-03-11 21:32:00
4:52 PM,30.9,22.3,70,29.75,10.0,NNW,9.2,-,N/A,,Overcast,330,2013-03-11 21:52:00
5:00 PM,31.1,22.3,70,29.75,10.0,NNW,9.2,-,N/A,,Overcast,330,2013-03-11 22:00:00
5:25 PM,32.0,21.2,64,29.75,10.0,NNW,10.4,-,N/A,,Overcast,340,2013-03-11 22:25:00
5:46 PM,31.6,21.0,65,29.75,10.0,North,6.9,-,N/A,,Overcast,350,2013-03-11 22:46:00
6:11 PM,31.5,21.6,67,29.76,10.0,NW,6.9,-,N/A,,Overcast,320,2013-03-11 23:11:00
6:32 PM,31.5,20.5,64,29.76,10.0,NW,9.2,-,N/A,,Overcast,320,2013-03-11 23:32:00
6:52 PM,31.3,21.2,66,29.76,10.0,WNW,6.9,-,N/A,,Overcast,300,2013-03-11 23:52:00
7:12 PM,31.1,21.2,67,29.77,10.0,WNW,11.5,-,N/A,,Overcast,290,2013-03-12 00:12:00
7:32 PM,30.9,21.4,68,29.77,10.0,NW,9.2,16.1,N/A,,Overcast,310,2013-03-12 00:32:00
7:52 PM,30.6,21.2,68,29.78,10.0,WNW,10.4,-,N/A,,Overcast,300,2013-03-12 00:52:00
8:12 PM,30.2,20.3,67,29.78,10.0,NW,11.5,17.3,N/A,,Overcast,310,2013-03-12 01:12:00
8:32 PM,30.0,20.3,67,29.78,10.0,NW,11.5,-,N/A,,Mostly Cloudy,310,2013-03-12 01:32:00
8:52 PM,29.7,21.0,70,29.80,10.0,West,6.9,-,N/A,,Overcast,280,2013-03-12 01:52:00
9:12 PM,29.3,21.2,72,29.80,10.0,WNW,8.1,-,N/A,,Overcast,290,2013-03-12 02:12:00
9:32 PM,29.3,21.2,72,29.81,10.0,WNW,9.2,-,N/A,,Overcast,300,2013-03-12 02:32:00
9:52 PM,28.9,21.2,73,29.81,10.0,WNW,6.9,-,N/A,,Scattered Clouds,300,2013-03-12 02:52:00
10:12 PM,28.6,20.7,72,29.82,10.0,WNW,8.1,-,N/A,,Clear,290,2013-03-12 03:12:00
10:32 PM,28.0,19.4,70,29.82,10.0,WNW,6.9,-,N/A,,Clear,290,2013-03-12 03:32:00
10:52 PM,27.3,18.9,70,29.83,10.0,WNW,8.1,-,N/A,,Clear,290,2013-03-12 03:52:00
11:12 PM,27.0,18.7,71,29.83,10.0,WNW,4.6,-,N/A,,Clear,290,2013-03-12 04:12:00
11:32 PM,26.1,18.5,73,29.83,10.0,West,6.9,-,N/A,,Clear,280,2013-03-12 04:32:00
11:52 PM,25.5,18.7,75,29.84,10.0,West,8.1,-,N/A,,Clear,280,2013-03-12 04:52:00